#timestamp,LO_Frequency,Hit,StdDev 
1634328015.2,286047003.0,N
1634328035.0,286047005.4,N
1634328035.9,286047005.4,N
1634328055.8,286047004.8,N
1634328075.6,286047006.7,Y
1634328095.5,286047006.1,P
1634328115.3,286047012.3,P
1634328135.1,286047005.8,N
1634328155.9,286047005.6,N
1634328175.7,286047012.1,Y
1634328195.6,286047002.1,P
1634328215.4,286047004.0,N
1634328235.2,286047003.1,N
1634328255.1,286047005.7,Y
1634328256.0,286047005.7,P
1634328275.8,286046999.4,N
1634328295.7,286046998.8,N
1634328315.5,286046998.8,N
1634328335.3,286047003.4,N
1634328355.2,286047004.0,N
1634328375.0,286047009.1,Y
1634328375.9,286047009.1,P
1634328395.8,286047007.2,N
1634328415.6,286047003.9,N
1634328435.4,286047004.2,N
1634328455.3,286047006.6,N
1634328475.1,286047004.9,N
1634328495.9,286047008.0,Y
1634328515.7,286047001.3,P
1634328535.5,286047003.0,N
1634328555.4,286046999.8,N
1634328575.2,286047001.2,N
1634328595.0,286046996.7,N
1634328595.9,286046996.7,N
1634328615.8,286046995.3,N
1634328635.6,286046995.7,N
1634328655.5,286046997.1,N
1634328675.3,286046999.1,N
1634328695.1,286047002.2,N
1634328715.9,286046999.9,N
1634328735.7,286046998.7,N
1634328755.6,286046999.0,N
1634328775.4,286046999.5,N
1634328795.2,286047002.5,N
1634328815.1,286047003.3,N
1634328816.0,286047003.3,N
1634328835.8,286047008.9,Y
1634328855.6,286047009.7,P
1634328875.5,286047007.8,N
1634328895.3,286047007.9,N
1634328915.2,286047010.8,N
1634328935.9,286047011.5,Y
1634328955.7,286047006.4,P
1634328975.6,286047006.4,P
1634328995.4,286047010.2,P
1634329015.3,286047009.7,Y
1634329035.1,286047001.9,P
1634329055.8,286047002.7,N
1634329075.7,286047003.0,N
1634329095.5,286047004.9,N
1634329115.4,286047004.7,N
1634329135.2,286047010.3,Y
1634329155.0,286047005.6,P
1634329155.9,286047005.6,P
1634329175.8,286047006.9,P
1634329195.6,286047009.2,Y
1634329215.5,286047003.5,P
1634329235.3,286047006.9,P
1634329255.1,286047006.9,P
1634329275.9,286047006.5,Y
1634329295.7,286047001.3,P
1634329315.6,286046999.9,N
1634329335.4,286046998.7,N
1634329355.2,286047001.7,N
1634329375.1,286047000.5,N
1634329376.0,286047000.5,N
1634329395.8,286046997.5,N
1634329415.6,286046999.2,N
1634329435.5,286047000.3,N
1634329455.3,286046999.9,N
1634329475.2,286047002.8,N
1634329495.9,286047004.0,N
1634329515.7,286047001.8,N
1634329535.6,286046997.3,N
1634329555.4,286047000.9,N
1634329575.2,286047005.3,N
1634329595.1,286047006.0,N
1634329596.0,286047006.0,N
1634329615.8,286047006.1,N
1634329635.7,286047012.2,Y
1634329655.5,286047009.4,P
1634329675.3,286047012.1,P
1634329695.2,286047013.7,P
1634329715.0,286047013.7,N
1634329715.9,286047013.7,Y
1634329735.8,286047006.6,P
1634329755.6,286047008.3,P
1634329775.4,286047009.8,P
1634329795.3,286047011.7,Y
1634329815.1,286047001.4,P
1634329835.9,286047002.0,N
1634329855.7,286047002.2,N
1634329875.5,286047001.6,N
1634329895.4,286047002.3,N
1634329915.2,286047000.4,N
1634329935.0,286046998.1,N
1634329935.9,286046998.1,N
1634329955.8,286046998.6,N
1634329975.6,286046993.2,N
1634329995.5,286046990.2,N
1634330015.3,286046988.5,N
1634330035.1,286046991.4,N
1634330055.9,286046991.6,N
1634330075.7,286046992.5,N
1634330095.6,286046995.2,N
1634330115.4,286047011.9,N
1634330135.2,286047005.2,N
1634330155.1,286047007.0,N
1634330156.0,286047007.0,N
1634330175.8,286047006.3,N
1634330195.6,286047003.8,N
1634330215.5,286047000.3,N
1634330235.3,286046997.6,N
1634330255.2,286046995.6,N
1634330275.9,286046999.2,N
1634330295.7,286046998.7,N
1634330315.6,286046995.0,N
1634330335.4,286046994.8,N
1634330355.2,286046990.3,N
1634330375.1,286046989.6,N
1634330376.0,286046989.6,N
1634330395.8,286046989.1,N
1634330415.7,286046990.7,N
1634330435.5,286046992.9,N
1634330455.3,286046996.3,N
1634330475.2,286046990.8,N
1634330495.0,286046990.2,N
1634330495.9,286046990.2,N
1634330515.8,286046991.0,N
1634330535.6,286046991.7,N
1634330555.4,286046995.9,N
1634330575.3,286046993.7,N
1634330595.1,286046993.4,N
1634330615.8,286046994.2,N
1634330635.7,286046992.0,N
1634330655.5,286046990.5,N
1634330675.4,286046993.1,N
1634330695.2,286046994.6,N
1634330715.0,286046994.6,N
1634330715.9,286046994.6,N
1634330735.8,286046992.2,N
1634330755.6,286046992.7,N
1634330775.4,286046991.9,Y
1634330795.3,286047001.6,P
1634330815.1,286046998.7,N
1634330835.9,286046997.3,N
1634330855.7,286046999.6,N
1634330875.5,286046999.2,N
1634330895.4,286046998.5,N
1634330915.2,286046998.1,N
1634330935.0,286047001.9,N
1634330936.0,286047001.9,N
1634330955.8,286047002.6,N
1634330975.6,286047001.8,N
1634330995.5,286047000.4,N
1634331015.3,286047002.7,N
1634331035.1,286047001.4,N
1634331055.9,286047005.0,N
1634331075.7,286047006.7,N
1634331095.5,286047005.5,N
1634331115.4,286047003.0,N
1634331135.2,286047004.1,N
1634331155.1,286047005.4,N
1634331156.0,286047005.4,N
1634331175.8,286047000.5,N
1634331195.6,286046997.4,N
1634331215.5,286046999.0,N
1634331235.3,286047000.5,N
1634331255.1,286047002.4,N
1634331275.9,286047000.2,N
1634331295.7,286047002.8,N
1634331315.6,286047002.7,N
1634331335.4,286047004.4,N
1634331355.2,286046999.9,N
1634331375.1,286047007.1,N
1634331376.0,286047007.1,N
1634331395.8,286047005.1,N
1634331415.7,286047004.1,N
1634331435.5,286047000.7,N
1634331455.3,286046999.3,N
1634331475.2,286047004.3,N
1634331495.9,286047003.7,N
1634331515.7,286047003.4,N
1634331535.6,286047003.0,N
1634331555.4,286047005.7,N
1634331575.3,286047002.9,N
1634331595.1,286047005.8,N
1634331596.0,286047005.8,N
